Find Heinrich-Hertz-Satellit

NORAD ID: 57213 Int'l Des: 2023-093 Owner: DLR Country: D operational
HEOCIRCULARGSOGEO

現在のビュー

3D地球を読み込み中...

Heinrich-Hertz-Satellitについて

説明を読み込み中...

次回通過

Passes for default location (London). Set your location on the main map for personalized predictions.

高度履歴

Loading altitude history...

軌道要素

1 57213U 23093A 26151.14489663 .00000014 00000-0 00000+0 0 9995
2 57213 0.0104 69.1413 0000934 12.4046 219.9407 1.00271820 10747
Epoch: May 31, 2026 • Age: 8 hours

現在のステータス

高度 35782.4 km
速度 3.07 km/s
衛星直下点 0.00°N, 0.66°E
打ち上げ日 Jul 5, 2023
運用期間 2.9 years
タイプ other

技術仕様

分類 Payload
質量 3408.00 kg
乾燥質量 3200.00 kg
総質量 3408.00 kg
長さ 3.00 m
直径 2.00 m
スパン 15.00 m
形状 Box + 2 panels
製造者 OHB
バスタイプ Luxor
フェーズステータス In Orbit
所有者/国 DLR/D

Most Searched